Regional Weather Roundup
Issued by NWS

Home | Current Version | Previous Version | Text Only | Print | Product List | Glossary On
Versions: 1 2 3 4 5 6 7 8 9 10 11 12 13 14 15 16 17 18 19 20 21 22 23 24 25 26 27
000
ASCA42 TJSJ 221610
RWRPR
PUERTO RICO/U.S. VIRGIN ISLANDS HOURLY WEATHER ROUNDUP
NATIONAL WEATHER SERVICE SAN JUAN PR
1200 PM AST MON MAY 22 2017

PRZ001>002-007>008-010-221700-
PUERTO RICO

CITY           SKY/WX    TMP DP  RH WIND       PRES   REMARKS
SAN JUAN LMM   MOSUNNY   88  75  66 NE17      30.05F HX  97
AGUADILLA      MOSUNNY   84  75  74 E15G22    30.06F HX  92
CEIBA          MOSUNNY   86  77  74 NE10      30.08S HX  97
$$

VIZ001>002-221700-
U.S. VIRGIN ISLANDS

CITY           SKY/WX    TMP DP  RH WIND       PRES   REMARKS
CHARLOTTE AMA  SUNNY     90  75  62 SE15      30.04F HX 100
CHRISTIANSTED  PTSUNNY   88  75  66 E16       30.05F HX  97
$$

HOURLY WEATHER ROUNDUP FOR THE NEWS MEDIA

CITY           SKY/WX    TMP DP  RH WIND       PRES   REMARKS
ORLANDO        SUNNY     88  68  51 VRB5      30.06F HX  91
NEW YORK       RAIN      57  57 100 E14       30.10  FOG
NEWARK         LGT RAIN  56  55  97 E6        30.09F FOG
CHICAGO        MOSUNNY   63  43  48 SW14G20   29.99F
HARTFORD       CLOUDY    56  47  71 S9        30.18F
BOSTON         LGT RAIN  50  44  80 E6        30.18F
DALLAS         CLOUDY    71  58  63 E12       30.07F
PHILADELPHIA   CLOUDY    60  58  92 E6        30.06F
LOS ANGELES    CLOUDY    60  58  92 W6        29.98R FOG
WASHINGTON DC  CLOUDY    62  59  90 SW5       30.05F



USA.gov is the U.S. government's official web portal to all federal, state and local government web resources and services.